Tracking 20066 objects as of 6-Dec-2019
HD Live streaming from Space Station
objects crossing your sky now

DELTA 1 DEB

Track DELTA 1 DEB now!
10-day predictions


NORAD ID: 12177
Int'l Code: 1978-026S
Perigee: 813.3 km
Apogee: 1,041.1 km
Inclination: 98.7 °
Period: 103.4 minutes
Semi major axis: 7298 km
RCS: 0.0985 m2 (small)
Launch date: March 5, 1978
Source: United States (US)
Launch site: AIR FORCE WESTERN TEST RANGE (AFWTR)

Note: This is SATELLITE DEBRIS
aabbcc
Your satellite tracking list
Your tracking list is empty




NASA's NSSDC Master Catalog

Two Line Element Set (TLE):
1 12177U 78026S   19339.92702878 -.00000060 +00000-0 -13063-4 0  9994
2 12177 098.7086 153.6433 0156081 234.1349 299.4476 13.92451809967702
Source of the keplerian elements: AFSPC